• In Belgien
  • Länderverzeichnis
  • Für 7 Tage
  • Wassertemperatur
  • Satellitenkarten
  • Wetterkarte
  • Widgets
  • user-avatar
    Anmelden

    Stündliche Wetter Tirana

    Heute, 23 August, Mittwoch

    Zeit Temperatur Niederschläge Wind Luftdruck Luftfeuchtigkeit
    00:00 +20°C° 0 mm 4 m/S 754 mmHg 48%
    01:00 +19°C° 0 mm 3 m/S 754 mmHg 48%
    02:00 +19°C° 0 mm 3 m/S 754 mmHg 48%
    03:00 +19°C° 0 mm 3 m/S 754 mmHg 48%
    04:00 +18°C° 0 mm 3 m/S 754 mmHg 48%
    05:00 +20°C° 0 mm 3 m/S 754 mmHg 45%
    06:00 +21°C° 0 mm 2 m/S 754 mmHg 43%
    07:00 +24°C° 0 mm 2 m/S 754 mmHg 40%
    08:00 +26°C° 0 mm 2 m/S 754 mmHg 35%
    09:00 +29°C° 0 mm 2 m/S 755 mmHg 30%
    10:00 +31°C° 0 mm 2 m/S 755 mmHg 26%
    11:00 +33°C° 0 mm 3 m/S 755 mmHg 24%
    12:00 +33°C° 0 mm 4 m/S 755 mmHg 23%
    13:00 +34°C° 0 mm 5 m/S 755 mmHg 21%
    14:00 +33°C° 0 mm 5 m/S 754 mmHg 23%
    15:00 +33°C° 0 mm 5 m/S 754 mmHg 25%
    16:00 +32°C° 0 mm 5 m/S 754 mmHg 26%
    17:00 +28°C° 0 mm 5 m/S 754 mmHg 36%
    18:00 +26°C° 0 mm 4 m/S 754 mmHg 45%
    19:00 +22°C° 0 mm 3 m/S 755 mmHg 54%
    20:00 +22°C° 0 mm 3 m/S 755 mmHg 53%
    21:00 +21°C° 0 mm 2 m/S 755 mmHg 53%
    22:00 +21°C° 0 mm 2 m/S 756 mmHg 52%
    23:00 +21°C° 0 mm 2 m/S 756 mmHg 50%

    Morgen, 24 August, Donnerstag

    Zeit Temperatur Niederschläge Wind Luftdruck Luftfeuchtigkeit
    00:00 +20°C° 0 mm 2 m/S 756 mmHg 47%
    01:00 +21°C° 0 mm 1 m/S 756 mmHg 45%
    02:00 +20°C° 0 mm 2 m/S 756 mmHg 44%
    03:00 +20°C° 0 mm 2 m/S 756 mmHg 43%
    04:00 +19°C° 0 mm 2 m/S 755 mmHg 42%
    05:00 +21°C° 0 mm 2 m/S 756 mmHg 40%
    06:00 +24°C° 0 mm 2 m/S 756 mmHg 38%
    07:00 +25°C° 0 mm 2 m/S 756 mmHg 35%
    08:00 +28°C° 0 mm 2 m/S 756 mmHg 31%
    09:00 +30°C° 0 mm 2 m/S 756 mmHg 27%
    10:00 +34°C° 0 mm 2 m/S 756 mmHg 23%
    11:00 +35°C° 0 mm 3 m/S 756 mmHg 22%
    12:00 +35°C° 0 mm 3 m/S 756 mmHg 21%
    13:00 +36°C° 0 mm 4 m/S 755 mmHg 20%
    14:00 +35°C° 0 mm 5 m/S 755 mmHg 21%
    15:00 +35°C° 0 mm 5 m/S 755 mmHg 22%
    16:00 +34°C° 0 mm 5 m/S 755 mmHg 23%
    17:00 +32°C° 0 mm 5 m/S 755 mmHg 31%
    18:00 +28°C° 0 mm 4 m/S 755 mmHg 38%
    19:00 +25°C° 0 mm 3 m/S 755 mmHg 46%
    20:00 +25°C° 0 mm 3 m/S 756 mmHg 44%
    21:00 +24°C° 0 mm 2 m/S 756 mmHg 43%
    22:00 +24°C° 0 mm 2 m/S 756 mmHg 42%
    23:00 +24°C° 0 mm 2 m/S 756 mmHg 40%

    übermorgen, 25 August, Freitag

    Zeit Temperatur Niederschläge Wind Luftdruck Luftfeuchtigkeit
    00:00 +24°C° 0 mm 2 m/S 756 mmHg 39%
    01:00 +23°C° 0 mm 2 m/S 756 mmHg 38%
    02:00 +23°C° 0 mm 2 m/S 756 mmHg 38%
    03:00 +23°C° 0 mm 2 m/S 756 mmHg 37%
    04:00 +23°C° 0 mm 2 m/S 756 mmHg 37%
    05:00 +24°C° 0 mm 2 m/S 756 mmHg 36%
    06:00 +26°C° 0 mm 2 m/S 756 mmHg 34%
    07:00 +28°C° 0 mm 2 m/S 756 mmHg 33%
    08:00 +30°C° 0 mm 2 m/S 756 mmHg 29%
    09:00 +34°C° 0 mm 2 m/S 756 mmHg 25%
    10:00 +36°C° 0 mm 2 m/S 756 mmHg 21%
    11:00 +37°C° 0 mm 2 m/S 756 mmHg 20%
    12:00 +38°C° 0 mm 3 m/S 756 mmHg 19%
    13:00 +38°C° 0 mm 4 m/S 755 mmHg 17%
    14:00 +38°C° 0 mm 4 m/S 755 mmHg 19%
    15:00 +37°C° 0 mm 5 m/S 755 mmHg 20%
    16:00 +37°C° 0 mm 5 m/S 754 mmHg 21%
    17:00 +34°C° 0 mm 4 m/S 755 mmHg 28%
    18:00 +30°C° 0 mm 3 m/S 755 mmHg 35%
    19:00 +27°C° 0 mm 3 m/S 755 mmHg 41%
    20:00 +26°C° 0 mm 2 m/S 755 mmHg 40%
    21:00 +26°C° 0 mm 2 m/S 755 mmHg 38%
    22:00 +26°C° 0 mm 2 m/S 755 mmHg 36%
    23:00 +25°C° 0 mm 1 m/S 755 mmHg 34%

    26 August, Samstag

    Zeit Temperatur Niederschläge Wind Luftdruck Luftfeuchtigkeit
    00:00 +25°C° 0 mm 1 m/S 755 mmHg 33%
    01:00 +25°C° 0 mm 1 m/S 755 mmHg 31%
    02:00 +24°C° 0 mm 1 m/S 755 mmHg 31%
    03:00 +24°C° 0 mm 1 m/S 755 mmHg 30%
    04:00 +24°C° 0 mm 2 m/S 755 mmHg 30%
    05:00 +25°C° 0 mm 2 m/S 755 mmHg 29%
    06:00 +27°C° 0 mm 2 m/S 755 mmHg 29%
    07:00 +28°C° 0 mm 2 m/S 755 mmHg 28%
    08:00 +31°C° 0 mm 2 m/S 755 mmHg 24%
    09:00 +34°C° 0 mm 1 m/S 755 mmHg 21%
    10:00 +37°C° 0 mm 1 m/S 755 mmHg 17%
    11:00 +38°C° 0 mm 2 m/S 754 mmHg 16%
    12:00 +39°C° 0 mm 3 m/S 754 mmHg 15%
    13:00 +40°C° 0 mm 4 m/S 754 mmHg 15%
    14:00 +40°C° 0 mm 4 m/S 753 mmHg 16%
    15:00 +38°C° 0 mm 4 m/S 753 mmHg 17%
    16:00 +37°C° 0 mm 4 m/S 753 mmHg 18%
    17:00 +34°C° 0 mm 4 m/S 753 mmHg 25%
    18:00 +30°C° 0 mm 3 m/S 753 mmHg 31%
    19:00 +27°C° 0 mm 2 m/S 753 mmHg 38%
    20:00 +27°C° 0 mm 2 m/S 754 mmHg 36%
    21:00 +26°C° 0 mm 1 m/S 754 mmHg 35%
    22:00 +26°C° 0 mm 1 m/S 754 mmHg 33%
    23:00 +26°C° 0 mm 1 m/S 754 mmHg 32%

    27 August, Sonntag

    Zeit Temperatur Niederschläge Wind Luftdruck Luftfeuchtigkeit
    00:00 +26°C° 0 mm 1 m/S 754 mmHg 30%
    01:00 +25°C° 0 mm 1 m/S 754 mmHg 29%
    02:00 +25°C° 0 mm 1 m/S 754 mmHg 29%
    03:00 +25°C° 0 mm 1 m/S 754 mmHg 29%
    04:00 +24°C° 0 mm 2 m/S 754 mmHg 28%
    05:00 +26°C° 0 mm 2 m/S 754 mmHg 28%
    06:00 +28°C° 0 mm 2 m/S 754 mmHg 27%
    07:00 +29°C° 0 mm 2 m/S 754 mmHg 26%
    08:00 +32°C° 0 mm 1 m/S 754 mmHg 23%
    09:00 +35°C° 0 mm 1 m/S 754 mmHg 19%
    10:00 +37°C° 0 mm 1 m/S 753 mmHg 16%
    11:00 +39°C° 0 mm 2 m/S 753 mmHg 15%
    12:00 +39°C° 0 mm 3 m/S 753 mmHg 15%
    13:00 +41°C° 0 mm 4 m/S 752 mmHg 14%
    14:00 +40°C° 0 mm 4 m/S 752 mmHg 15%
    15:00 +39°C° 0 mm 5 m/S 752 mmHg 17%
    16:00 +39°C° 0 mm 5 m/S 752 mmHg 18%
    17:00 +34°C° 0 mm 4 m/S 752 mmHg 25%
    18:00 +30°C° 0 mm 3 m/S 752 mmHg 32%
    19:00 +27°C° 0 mm 2 m/S 752 mmHg 39%
    20:00 +27°C° 0 mm 2 m/S 752 mmHg 37%
    21:00 +27°C° 0 mm 2 m/S 752 mmHg 35%
    22:00 +26°C° 0 mm 1 m/S 752 mmHg 34%
    23:00 +26°C° 0 mm 1 m/S 752 mmHg 32%

    28 August, Montag

    Zeit Temperatur Niederschläge Wind Luftdruck Luftfeuchtigkeit
    00:00 +26°C° 0 mm 1 m/S 752 mmHg 30%
    01:00 +26°C° 0 mm 1 m/S 752 mmHg 29%
    02:00 +25°C° 0 mm 1 m/S 752 mmHg 29%
    03:00 +25°C° 0 mm 1 m/S 752 mmHg 29%
    04:00 +25°C° 0 mm 2 m/S 752 mmHg 28%
    05:00 +27°C° 0 mm 1 m/S 752 mmHg 27%
    06:00 +28°C° 0 mm 1 m/S 752 mmHg 26%
    07:00 +30°C° 0 mm 1 m/S 752 mmHg 25%
    08:00 +32°C° 0 mm 1 m/S 752 mmHg 22%
    09:00 +35°C° 0 mm 1 m/S 752 mmHg 19%
    10:00 +37°C° 0 mm 1 m/S 752 mmHg 16%
    11:00 +39°C° 0 mm 2 m/S 752 mmHg 16%
    12:00 +39°C° 0 mm 3 m/S 751 mmHg 16%
    13:00 +41°C° 0 mm 5 m/S 751 mmHg 15%
    14:00 +40°C° 0 mm 5 m/S 751 mmHg 18%
    15:00 +39°C° 0 mm 5 m/S 750 mmHg 21%
    16:00 +37°C° 0 mm 5 m/S 750 mmHg 24%
    17:00 +34°C° 0 mm 4 m/S 750 mmHg 32%
    18:00 +30°C° 0 mm 3 m/S 750 mmHg 39%
    19:00 +27°C° 0 mm 2 m/S 751 mmHg 47%
    20:00 +27°C° 0 mm 2 m/S 751 mmHg 46%
    21:00 +27°C° 0 mm 2 m/S 751 mmHg 45%
    22:00 +27°C° 0 mm 1 m/S 751 mmHg 44%
    23:00 +27°C° 0 mm 1 m/S 751 mmHg 42%
    Mehr zeigen